SCP
0 0 0 0 0 0 0 0 0 0 0 0 0 0 0 0 0 0 0 0 0 0 0 0 0 0 0 0 0 0 0 0 0 0 0 0 0 0 0 0 0 0 0
0 0 0 0 0 0 0 0 0 0 0 0 0 0 0 0 0 0 0 0 0 0 0 0 0 0 0 0 0 0 0 0 0 0 0 0 0 0 0 0 0 0 0
0 0 0 0 0 0 0 0 0 0 0 0 0 0 0 0 0 0 0 0 0 0 0 0 0 0 0 0 0 0 0 0 0 0 0 0 0 0 0 0 0 0 0
0 0 0 0 0 0 0 0 0 0 0 0 0 0 0 0 0 0 0 0 0 0 0 0 0 0 0 0 0 0 0 0 0 0 0 0 0 0 0 0 0 0 0
0 0 0 0 0 0 0 0 0 0 0 0 0 0 0 0 0 0 0 0 0 0 0 0 0 0 0 0 0 0 0 0 0 0 0 0 0 0 0 0 0 0 0
0 0 0 0 0 0 0 0 0 0 0 0 0 0 0 0 0 0 0 0 0 0 0 0 0 0 0 0 0 0 0 0 0 0 0 0 0 0 0 0 0 0 0
0 0 0 0 0 0 0 0 0 0 0 0 0 0 0 0 0 0 0 0 0 0 0 0 0 0 0 0 0 0 0 0 0 0 0 0 0 0 0 0 0 0 0
0 0 0 0 0 0 0 0 0 0 0 0 0 0 0 0 0 0 0 0 0 0 0 0 0 0 0 0 0 0 0 0 0 0 0 0 0 0 0 0 0 0 0
0 0 0 0 0 0 0 0 0 0 0 0 0 0 0 0 0 0 0 0 0 0 0 0 0 0 0 0 0 0 0 0 0 0 0 0 0 0 0 0 0 0 0
0 0 0 0 0 0 0 0 0 0 0 0 0 0 0 0 0 0 0 0 0 0 0 0 0 0 0 0 0 0 0 0 0 0 0 0 0 0 0 0 0 0 0
0 0 0 0 0 0 0 0 0 0 0 0 0 0 0 0 0 0 0 0 0 0 0 0 0 0 0 0 0 0 0 0 0 0 0 0 0 0 0 0 0 0 0
0 0 0 0 0 0 0 0 0 0 0 0 0 0 0 0 0 0 0 0 0 0 0 0 0 0 0 0 0 0 0 0 0 0 0 0 0 0 0 0 0 0 0
0 0 0 0 0 0 0 0 0 0 0 0 0 0 0 0 0 0 0 0 0 0 0 0 0 0 0 0 0 0 0 0 0 0 0 0 0 0 0 0 0 0 0
0 0 0 0 0 0 0 0 0 0 0 0 0 0 0 0 0 0 0 0 0 0 0 0 0 0 0 0 0 0 0 0 0 0 0 0 0 0 0 0 0 0 0
0 0 0 0 0 0 0 0 0 0 0 0 0 0 0 0 0 0 0 0 0 0 0 0 0 0 0 0 0 0 0 0 0 0 0 0 0 0 0 0 0 0 0
0 0 0 0 0 0 0 0 0 0 0 0 0 0 0 0 0 0 0 0 0 0 0 0 0 0 0 0 0 0 0 0 0 0 0 0 0 0 0 0 0 0 0
0 0 0 0 0 0 0 0 0 0 0 0 0 0 0 0 0 0 0 0 0 0 0 0 0 0 0 0 0 0 0 0 0 0 0 0 0 0 0 0 0 0 0
0 0 0 0 0 0 0 0 0 0 0 0 0 0 0 0 0 0 0 0 0 0 0 0 0 0 0 0 0 0 0 0 0 0 0 0 0 0 0 0 0 0 0
0 0 0 0 0 0 0 0 0 0 0 0 0 0 0 0 0 0 0 0 0 0 0 0 0 0 0 0 0 0 0 0 0 0 0 0 0 0 0 0 0 0 0
0 0 0 0 0 0 0 0 0 0 0 0 0 0 0 0 0 0 0 0 0 0 0 0 0 0 0 0 0 0 0 0 0 0 0 0 0 0 0 0 0 0 0
0 0 0 0 0 0 0 0 0 0 0 0 0 0 0 0 0 0 0 0 0 0 0 0 0 0 0 0 0 0 0 0 0 0 0 0 0 0 0 0 0 0 0
0 0 0 0 0 0 0 0 0 0 0 0 0 0 0 0 0 0 0 0 0 0 0 0 0 0 0 0 0 0 0 0 0 0 0 0 0 0 0 0 0 0 0
1 0 0 0 0 0 0 0 0 0 0 0 0 0 0 0 0 0 0 0 0 0 0 0 0 0 0 0 0 0 0 0 0 0 0 0 0 0 0 0 0 0 0
1 1 0 0 0 0 0 0 0 0 0 0 0 0 0 0 0 0 0 0 0 0 0 0 0 0 0 0 0 0 0 0 0 0 0 0 0 0 0 0 0 0 0
1 1 0 0 0 0 0 0 0 0 0 0 0 0 0 0 0 0 0 0 0 0 0 0 0 0 0 0 0 0 0 0 0 0 0 0 0 0 0 0 0 0 0
1 1 0 0 0 0 0 0 0 0 0 0 0 0 0 0 0 0 0 0 0 0 0 0 0 0 0 0 0 0 0 0 0 0 0 0 0 0 0 0 0 0 0
Wind_Speed
6 5 4 3 4 4 4 4 4 4 4 3 3 3 3 2 2 2 2 5 5 5 5 5 5 6 6 6 6 7 7 8 8 9 9 10 10 11 11 12 12 13 13
6 6 5 4 4 4 4 4 4 4 3 2 3 3 2 2 2 2 2 3 5 4 3 3 4 4 4 4 5 5 6 7 7 8 9 9 10 11 11 12 12 13 14
8 7 5 5 4 4 4 4 4 3 3 3 3 2 2 2 1 1 1 1 2 4 3 2 2 2 3 3 4 5 5 6 7 7 8 9 10 10 11 12 13 13 14
9 7 6 5 5 4 4 4 3 3 2 2 2 1 1 1 1 1 1 1 1 1 3 3 2 2 2 2 3 4 5 6 7 7 8 9 10 11 12 12 13 14 15
10 8 6 5 6 5 4 4 3 3 3 2 2 1 1 0 1 1 1 1 0 0 1 2 3 3 3 3 4 5 6 6 7 8 9 10 10 11 12 13 14 14 15
10 8 6 7 7 5 4 4 4 2 2 3 2 2 1 0 0 1 2 1 1 1 0 1 1 3 4 5 5 6 7 8 8 9 9 10 11 12 13 13 14 15 16
11 9 7 7 7 6 6 6 4 4 2 2 3 1 2 1 1 1 1 1 2 2 1 1 1 1 2 5 6 6 8 9 9 10 11 11 12 13 14 14 15 16 16
12 10 9 8 8 6 7 6 5 4 2 3 3 2 1 3 2 1 1 2 2 1 2 2 2 1 1 1 4 6 8 9 10 11 11 12 13 14 14 15 16 16 17
13 11 11 9 9 8 8 8 7 7 4 2 2 4 3 3 2 2 2 2 2 2 2 1 2 2 1 1 2 5 7 9 10 11 12 12 13 14 15 16 16 17 18
13 12 12 11 10 8 8 8 7 5 6 4 2 1 2 3 2 2 2 1 2 3 2 2 2 2 2 1 3 5 7 9 11 11 12 13 14 15 16 17 17 18 18
12 13 12 11 11 9 9 9 8 7 5 5 5 3 2 1 2 2 3 3 2 2 2 2 2 2 2 2 2 5 8 9 11 12 12 13 14 15 16 17 17 18 18
10 13 13 12 11 10 10 10 10 9 7 6 5 4 4 4 4 3 3 3 2 2 1 1 2 2 2 2 3 6 8 10 11 11 12 13 14 15 16 16 17 18 18
10 14 13 12 11 10 10 9 9 9 9 8 7 5 4 4 4 4 3 2 2 2 2 2 2 2 2 2 3 6 8 10 10 10 11 12 12 14 15 16 17 18 18
12 13 14 13 12 11 11 10 8 9 8 8 8 7 4 4 4 4 4 3 1 2 2 3 1 1 2 1 3 4 4 9 9 10 11 11 12 13 14 15 16 17 18
9 12 14 13 12 12 12 11 8 9 8 8 7 7 5 4 4 3 3 4 4 2 3 3 2 1 1 1 3 2 3 7 9 10 11 11 11 13 14 15 16 16 17
12 13 14 13 12 12 12 11 8 8 9 8 6 7 6 4 4 3 3 3 3 4 3 3 2 1 1 1 3 2 3 7 9 10 11 11 11 12 13 14 15 16 16
13 14 14 14 13 13 12 11 10 10 10 8 7 8 8 6 5 4 3 3 3 3 4 3 1 1 1 2 2 2 2 3 4 9 10 11 11 12 13 13 14 15 16
13 13 13 13 13 13 13 13 12 11 12 11 10 9 8 6 7 5 4 4 4 4 4 4 2 1 2 2 2 3 3 3 3 8 10 11 11 12 12 13 13 14 14
13 13 13 14 14 13 13 12 12 11 11 11 11 10 9 9 8 6 6 5 4 3 3 3 2 1 1 1 2 3 3 3 4 6 8 10 11 12 12 12 13 13 13
14 14 13 13 13 12 12 12 11 11 10 9 9 10 9 10 10 8 6 6 5 4 3 2 2 1 1 1 1 2 3 2 4 3 5 7 9 11 12 12 13 13 13
14 13 12 12 11 11 11 12 12 11 11 10 8 8 9 10 11 9 6 6 6 4 3 2 2 1 1 1 1 1 2 3 3 2 4 4 4 4 5 9 11 13 13
12 12 13 13 12 10 14 17 14 11 10 10 9 8 7 9 10 11 10 10 9 7 5 4 3 3 3 2 1 1 1 3 3 2 3 4 2 4 4 4 10 13 12
12 12 12 12 12 13 17 19 17 11 10 10 9 8 6 6 8 6 7 8 7 6 7 5 4 4 3 3 2 1 1 2 3 3 2 4 2 4 4 6 11 11 12
11 11 12 12 11 12 18 19 18 11 9 8 8 9 8 8 8 8 7 5 4 3 4 3 3 3 2 2 2 2 1 1 2 2 1 3 3 4 6 5 8 10 13
10 10 11 12 12 12 17 19 17 9 7 7 7 8 8 8 11 13 9 7 5 2 3 4 4 4 4 4 3 2 2 2 2 2 1 2 3 5 4 3 5 11 14
9 10 9 10 11 11 17 19 18 8 8 7 6 6 10 10 13 14 9 8 7 4 4 4 4 4 4 3 4 2 2 1 1 2 1 2 2 4 5 3 3 5 6
Wind_Direction
144 140 133 127 125 121 118 114 110 110 106 101 108 117 111 99 79 48 16 33 57 80 88 84 80 77 72 63 54 47 40 34 29 25 20 16 12 8 5 2 359 357 354
150 148 142 140 138 135 130 127 128 122 116 111 109 117 122 111 90 65 34 22 34 55 74 81 74 73 69 59 47 37 29 23 19 15 10 7 3 360 357 354 352 350 347
156 153 151 153 151 140 129 118 112 106 111 107 106 114 119 123 119 94 53 32 22 27 30 50 51 55 52 43 30 21 13 10 4 1 359 357 353 350 348 347 346 344 342
159 156 158 162 153 142 136 132 127 114 114 115 113 105 107 125 140 149 100 60 32 14 5 2 360 2 360 4 1 359 353 350 347 346 345 344 343 341 340 341 340 339 337
165 163 165 162 153 147 146 147 131 131 137 133 122 92 73 145 189 172 187 201 216 348 349 351 4 350 334 327 328 332 333 332 332 332 332 333 335 334 333 334 334 333 332
169 166 165 163 157 153 155 149 138 124 131 136 108 71 20 326 242 216 222 228 241 249 260 342 3 347 333 318 314 318 319 320 321 323 325 327 327 328 328 329 329 329 328
173 172 170 166 167 170 169 155 138 134 127 128 101 40 348 327 257 244 235 234 246 247 237 238 245 284 320 322 316 312 314 315 316 318 320 322 323 324 324 325 326 325 325
178 179 175 175 173 168 165 164 148 142 142 155 135 117 340 327 304 250 237 230 238 243 240 235 232 242 268 303 310 313 313 314 314 316 318 320 321 321 322 323 323 324 325
182 182 180 176 175 175 180 178 168 159 159 179 166 151 159 226 287 306 263 242 236 235 243 243 239 240 247 259 292 310 312 314 314 315 318 320 320 320 321 323 323 323 323
185 184 181 180 178 181 180 181 178 169 156 169 177 155 151 153 160 296 305 282 250 238 236 233 234 236 234 247 276 290 302 307 309 312 315 317 317 318 320 321 322 322 322
189 187 184 183 182 184 183 180 177 178 173 170 168 158 141 112 144 168 269 300 304 261 233 225 227 234 236 241 256 280 293 300 303 307 311 314 316 317 319 321 322 322 321
190 191 188 187 186 186 186 185 183 183 186 178 175 168 164 167 180 175 213 250 272 284 270 240 230 233 234 240 262 284 291 296 300 305 310 313 316 318 320 321 321 321 321
192 194 190 190 189 188 185 181 183 188 187 185 187 190 185 184 162 162 171 209 251 289 306 285 243 237 247 237 260 288 290 294 297 302 306 310 313 316 318 319 320 321 321
195 188 190 190 189 185 183 182 186 190 189 192 193 188 185 187 169 167 165 158 208 294 290 273 283 243 253 240 271 287 286 292 299 302 305 309 312 314 317 319 320 321 321
185 182 187 188 187 185 184 181 189 189 186 192 191 189 188 185 178 176 163 162 169 224 270 264 267 283 275 255 292 280 277 293 301 302 304 307 310 314 316 319 320 320 320
182 181 185 187 186 185 183 182 183 181 182 187 182 181 189 181 178 177 175 173 173 183 231 251 241 267 300 310 299 281 274 300 300 303 305 309 313 316 318 318 319 321 322
183 184 185 185 186 185 183 184 184 178 184 185 183 186 192 180 179 182 174 170 180 175 217 259 236 255 266 292 311 302 289 287 299 304 307 310 314 318 320 320 321 321 324
186 185 181 183 185 185 183 185 184 183 185 187 187 186 190 180 187 182 179 186 192 191 199 239 243 238 249 276 299 302 310 307 295 302 309 314 317 320 321 321 322 325 327
184 182 181 183 184 184 183 185 183 184 187 188 186 188 188 181 190 187 184 190 193 189 192 209 239 226 259 296 315 305 306 302 310 310 313 316 317 321 323 324 326 330 330
182 183 183 183 182 181 181 180 179 180 183 185 186 188 186 186 191 188 188 193 180 176 176 192 222 231 251 287 297 302 313 315 313 314 315 317 317 323 325 326 328 329 329
181 180 178 179 177 178 181 178 177 178 179 181 182 185 187 186 187 184 182 182 173 176 174 184 205 213 239 274 271 269 294 319 304 301 316 310 312 312 319 323 325 326 326
176 175 178 178 179 183 177 175 175 177 178 179 180 182 180 183 186 185 181 175 172 175 181 178 196 215 232 230 228 273 308 337 307 311 318 300 304 301 305 301 317 325 328
172 174 177 177 181 181 173 173 174 173 176 179 178 175 171 177 175 173 173 167 172 173 169 170 185 206 210 211 191 212 237 259 267 297 323 289 302 304 308 312 319 325 331
174 176 176 177 177 177 171 171 169 171 170 173 174 172 171 172 172 162 153 151 156 166 171 165 174 190 188 175 175 180 212 285 291 304 347 287 304 305 311 308 314 327 334
171 172 173 172 173 172 169 168 163 167 164 165 165 166 166 168 166 157 151 151 146 141 122 123 112 102 97 96 98 86 54 19 319 302 356 307 305 312 303 296 311 325 330
166 163 165 171 172 170 169 167 162 161 160 157 154 162 166 164 162 159 158 157 161 164 140 119 93 74 74 77 80 106 148 112 321 292 311 324 309 330 315 298 300 311 320